Regional Weather Roundup
Issued by NWS

Home | Current Version | Previous Version | Text Only | Print | Product List | Glossary On
Versions: 1 2 3 4 5 6 7 8 9 10 11 12 13 14 15 16 17 18 19 20 21 22 23 24 25 26 27 28 29 30 31 32 33 34 35 36 37 38 39 40 41 42 43 44 45 46 47 48 49 50
000
ASUS43 KOAX 290010
RWRNE

WEATHER ROUNDUP FOR NEBRASKA
NATIONAL WEATHER SERVICE OMAHA NE
700 PM CDT WED SEP 28 2016

NOTES: SATELLITE DATA IS BEING USED TO AUGMENT CLOUD COVER ABOVE
       12000 FEET.
       "FAIR" INDICATES FEW OR NO CLOUDS BELOW 12,000 FEET WITH NO
       SIGNIFICANT WEATHER AND/OR OBSTRUCTIONS TO VISIBILITY.

  * THESE STATIONS DO NOT REPORT WEATHER SUCH AS RAIN...SNOW OR FOG.

NEZ001>004-019>022-054>056-290100-
NEBRASKA PANHANDLE

CITY           SKY/WX    TMP DP  RH WIND       PRES   REMARKS
SCOTTSBLUFF    CLEAR     77  42  28 E6        30.27R
6HR MIN TEMP:  75; 6HR MAX TEMP:  82;

ALLIANCE       CLEAR     76  41  28 E6        30.26S
6HR MIN TEMP:  76; 6HR MAX TEMP:  82;

CHADRON        CLEAR     78  42  27 NE9       30.24S
6HR MIN TEMP:  77; 6HR MAX TEMP:  83;

KIMBALL        CLEAR     73  41  31 E8        30.33R
SIDNEY         CLEAR     75  35  23 E8        30.31R
6HR MIN TEMP:  75; 6HR MAX TEMP:  81;

$$

NEZ057>060-069>072-079>082-290100-
SOUTHWEST NEBRASKA

CITY           SKY/WX    TMP DP  RH WIND       PRES   REMARKS
NORTH PLATTE   CLEAR     72  39  30 NE9       30.26R
6HR MIN TEMP:  72; 6HR MAX TEMP:  79;

IMPERIAL       CLEAR     75  37  25 E9        30.26R
6HR MIN TEMP:  75; 6HR MAX TEMP:  82;

LEXINGTON      HAZE      65  35  32 E9        30.26R VSB<1/4
MCCOOK         CLEAR     73  41  31 NE13      30.24R
6HR MIN TEMP:  73; 6HR MAX TEMP:  82;

OGALLALA       CLEAR    N/A N/A N/A E10       30.27R HAZE
$$

NEZ005>010-023>029-035>040-094-290100-
NORTH CENTRAL NEBRASKA

CITY           SKY/WX    TMP DP  RH WIND       PRES   REMARKS
VALENTINE      CLEAR     66  28  24 E8        30.30R
6HR MIN TEMP:  66; 6HR MAX TEMP:  73;

AINSWORTH      CLEAR     64  47  55 NE7       30.30R
BROKEN BOW     CLEAR     67  43  41 NE7       30.27R
6HR MIN TEMP:  67; 6HR MAX TEMP:  75;

O`NEILL        CLEAR     61  42  49 NE5       30.31R
ORD            CLEAR     64  40  41 NE7       30.27R
6HR MIN TEMP:  64; 6HR MAX TEMP:  71; 6HR PCP: TRACE;

THEDFORD       CLEAR     69  36  29 E5        30.29R
$$

NEZ041-046>049-061>064-073>077-083>087-290100-
SOUTH CENTRAL NEBRASKA

CITY           SKY/WX    TMP DP  RH WIND       PRES   REMARKS
GRAND ISLAND   CLEAR     63  42  46 NE9       30.27R
6HR MIN TEMP:  63; 6HR MAX TEMP:  70;

AURORA         CLEAR     64  42  45 NE7       30.27R
HASTINGS       CLEAR     64  42  44 NE8       30.27R
6HR MIN TEMP:  64; 6HR MAX TEMP:  71;

HEBRON         CLEAR     65  42  42 NE7       30.25R
HOLDREGE       CLEAR     67  39  35 NE7       30.26R
KEARNEY *      CLEAR     66  43  42 NE8       30.25S
YORK           CLEAR     63  43  48 NE7       30.27R
$$

NEZ011>018-030>034-042>045-290100-
NORTHEAST NEBRASKA

CITY           SKY/WX    TMP DP  RH WIND       PRES   REMARKS
NORFOLK        CLEAR     62  42  47 NE9       30.28R
6HR MIN TEMP:  62; 6HR MAX TEMP:  68;

ALBION         CLEAR     62  43  50 NE5       30.28R
BLAIR          CLEAR     59  47  64 N8        30.27R
FREMONT        CLEAR     61  46  57 NE7       30.27R
TEKAMAH        CLEAR     60  45  57 N10       30.28R
6HR MIN TEMP:  60; 6HR MAX TEMP:  66;

WAYNE          CLEAR     60  47  61 E9        30.29R
$$

NEZ050>053-065>068-078-088>093-290100-
SOUTHEAST NEBRASKA

CITY           SKY/WX    TMP DP  RH WIND       PRES   REMARKS
LINCOLN        CLEAR     63  44  50 NE12      30.26R
6HR MIN TEMP:  63; 6HR MAX TEMP:  70;

OMAHA EPPLEY   PTCLDY    61  46  57 N8        30.26R
6HR MIN TEMP:  60; 6HR MAX TEMP:  67;

BEATRICE       CLEAR     63  45  51 NE9       30.24R
FALLS CITY     CLEAR     63  47  55 N7        30.22R
6HR MIN TEMP:  63; 6HR MAX TEMP:  68;

NEBRASKA CITY  CLEAR     60  40  47 NE7       30.25R
PLATTSMOUTH    CLEAR     60  43  52 N3        30.25R
$$

NEZ044-045-051>053-067-290100-
OMAHA AREA

CITY           SKY/WX    TMP DP  RH WIND       PRES   REMARKS
OMAHA EPPLEY   PTCLDY    61  46  57 N8        30.26R
6HR MIN TEMP:  60; 6HR MAX TEMP:  67;

BLAIR          CLEAR     59  47  64 N8        30.27R
FREMONT        CLEAR     61  46  57 NE7       30.27R
MILLARD        CLEAR     63  47  55 N6        30.26R
OFFUTT AFB     CLEAR     60  48  63 N6        30.25R
PLATTSMOUTH    CLEAR     60  43  52 N3        30.25R
WAHOO          FAIR      61  46  58 NE10      30.26R
$$



USA.gov is the U.S. government's official web portal to all federal, state and local government web resources and services.